Location: Unspecified
(0.0000°N, 0.0000°E)
Time: 10:22:21
(UTC+00:00)

N. Korean satellite - Pass Details

Date: 29 January 2021
Orbit: 451 x 503 km, 97.2° (Epoch: 27 February)

Event Time Altitude Azimuth Distance (km) Brightness Sun altitude
Rises 04:42:50 0° 24° (NNE) 2,441 10.2 -21.4°
Reaches altitude 10° 04:44:57 10° 32° (NNE) 1,574 9.3 -20.9°
Maximum altitude 04:48:05 37° 101° (E) 723 8.0 -20.2°
Drops below altitude 10° 04:51:15 10° 170° (S) 1,590 9.5 -19.4°
Sets 04:53:24 0° 178° (S) 2,472 10.4 -18.9°
